Weather History for Madisonville, KY

Change the Weather History Date:

Thursday, March 27, 2014

  Actual Average (KOWB) Record (KOWB)
Temperature  
Mean Temperature 54 °F -  
Max Temperature 67 °F 62 °F 82 °F (1945)
Min Temperature 42 °F 39 °F 16 °F (1955)
Degree Days  
Heating Degree Days 11    
Growing Degree Days 4 (Base 50)    
Moisture  
Dew Point 32 °F    
Average Humidity 47    
Maximum Humidity 84    
Minimum Humidity 32    
Precipitation  
Precipitation 0.08 in - - ()
Sea Level Pressure  
Sea Level Pressure 29.98 in    
Wind  
Wind Speed 13 mph (South)    
Max Wind Speed 25 mph    
Max Gust Speed 34 mph    
Visibility 10 miles    
Events Rain    
Averages and records for this station are not official NWS values.
T = Trace of Precipitation, MM = Missing Value Source: NWS Daily Summary

Daily Weather History Graph

Daily Weather History Graph

Search for Another Location

Airport:

Trip Planner

Search our weather history database for the weather conditions in past years. The results will help you decide how hot, cold, wet, or windy it might be!

Date:

Astronomy

Mar. 27, 2014 Rise Set
Actual Time 6:42 AM CDT 7:07 PM CDT
Civil Twilight 6:16 AM CDT 7:33 PM CDT
Nautical Twilight 5:45 AM CDT 8:04 PM CDT
Astronomical Twilight 5:14 AM CDT 8:36 PM CDT
Moon 4:29 AM CDT (3/27) 3:58 PM CDT (3/27)
Length of Visible Light 13h 17m
Length of Day
12h 25m
Waning Crescent, 13% of the Moon is Illuminated
Mar 27
Waning Crescent
Mar 30
New
Apr 7
First Quarter
Apr 15
Full
Apr 22
Last Quarter

Hourly Weather History & Observations

Time (CDT) Temp. Windchill Dew Point Humidity Pressure Visibility Wind Dir Wind Speed Gust Speed Precip Events Conditions
12:15 AM 42.3 °F 38.6 °F 18.0 °F 38% 30.18 in 10.0 mi South 5.8 mph - N/A   Scattered Clouds
12:35 AM 42.1 °F 39.2 °F 19.0 °F 40% 30.17 in 10.0 mi South 4.6 mph - N/A   Scattered Clouds
1:15 AM 43.0 °F 38.8 °F 18.7 °F 38% 30.16 in 10.0 mi SSE 6.9 mph - N/A   Overcast
1:35 AM 43.2 °F 39.7 °F 19.0 °F 38% 30.15 in 10.0 mi SSE 5.8 mph - N/A   Overcast
1:55 AM 43.5 °F 38.9 °F 19.4 °F 38% 30.14 in 10.0 mi South 8.1 mph - N/A   Overcast
2:15 AM 43.7 °F 38.6 °F 20.1 °F 39% 30.14 in 10.0 mi South 9.2 mph - N/A   Overcast
2:35 AM 44.1 °F 39.5 °F 20.1 °F 39% 30.13 in 10.0 mi South 8.1 mph - N/A   Overcast
2:55 AM 44.6 °F 40.2 °F 20.7 °F 39% 30.11 in 10.0 mi SSE 8.1 mph - N/A   Light Drizzle
3:15 AM 44.4 °F 40.0 °F 21.6 °F 40% 30.11 in 10.0 mi South 8.1 mph - N/A   Overcast
3:35 AM 44.6 °F 40.2 °F 22.3 °F 41% 30.11 in 10.0 mi South 8.1 mph - N/A Rain Light Rain
3:55 AM 44.8 °F 41.0 °F 21.4 °F 40% 30.09 in 10.0 mi SSE 6.9 mph - N/A   Overcast
4:15 AM 44.8 °F 41.6 °F 21.4 °F 40% 30.08 in 10.0 mi SSE 5.8 mph - N/A   Overcast
4:35 AM 45.0 °F 41.8 °F 21.4 °F 39% 30.09 in 10.0 mi South 5.8 mph - N/A   Overcast
4:55 AM 45.9 °F 40.8 °F 22.1 °F 39% 30.07 in 10.0 mi South 10.4 mph - N/A Rain Light Rain
5:15 AM 45.1 °F 42.8 °F 25.3 °F 46% 30.09 in 10.0 mi SSW 4.6 mph - N/A   Overcast
5:35 AM 43.7 °F 39.1 °F 29.1 °F 57% 30.08 in 10.0 mi SSE 8.1 mph - N/A Rain Light Rain
5:55 AM 44.2 °F 38.4 °F 28.0 °F 53% 30.06 in 10.0 mi SSE 11.5 mph 16.1 mph N/A   Overcast
6:15 AM 45.5 °F 38.9 °F 26.2 °F 47% 30.04 in 10.0 mi South 15.0 mph 19.6 mph N/A   Overcast
6:35 AM 46.2 °F 39.8 °F 25.7 °F 45% 30.05 in 10.0 mi South 15.0 mph 21.9 mph N/A   Overcast
6:55 AM 46.4 °F 40.1 °F 26.4 °F 46% 30.05 in 10.0 mi South 15.0 mph 20.7 mph N/A   Overcast
7:15 AM 46.8 °F - 26.6 °F 45% 30.05 in 10.0 mi South 16.1 mph 21.9 mph N/A   Overcast
7:35 AM 47.3 °F - 27.3 °F 46% 30.05 in 10.0 mi South 16.1 mph 21.9 mph N/A   Overcast
7:55 AM 48.2 °F - 27.7 °F 45% 30.04 in 10.0 mi South 19.6 mph 25.3 mph N/A   Overcast
8:15 AM 48.7 °F - 28.2 °F 45% 30.04 in 10.0 mi South 17.3 mph 25.3 mph N/A   Overcast
8:35 AM 49.6 °F - 27.9 °F 43% 30.04 in 10.0 mi South 18.4 mph 26.5 mph N/A   Overcast
8:55 AM 50.9 °F - 27.7 °F 41% 30.04 in 10.0 mi SSW 17.3 mph 29.9 mph N/A   Overcast
9:15 AM 51.8 °F - 27.3 °F 39% 30.04 in 10.0 mi SSW 21.9 mph 29.9 mph N/A   Overcast
9:35 AM 52.2 °F - 27.1 °F 38% 30.04 in 10.0 mi SSW 20.7 mph 31.1 mph N/A   Overcast
9:55 AM 52.0 °F - 27.0 °F 38% 30.04 in 10.0 mi SSW 19.6 mph 29.9 mph N/A   Overcast
10:15 AM 52.3 °F - 27.5 °F 38% 30.05 in 10.0 mi SSW 20.7 mph 34.5 mph N/A   Overcast
10:35 AM 52.3 °F - 27.7 °F 39% 30.05 in 10.0 mi SSW 18.4 mph 25.3 mph N/A   Overcast
10:55 AM 52.7 °F - 27.9 °F 38% 30.05 in 10.0 mi SSW 16.1 mph 26.5 mph N/A   Overcast
11:15 AM 53.2 °F - 28.4 °F 38% 30.04 in 10.0 mi SSW 13.8 mph 19.6 mph N/A   Overcast
11:35 AM 54.7 °F - 28.6 °F 37% 30.04 in 10.0 mi SSW 13.8 mph 24.2 mph N/A   Overcast
11:55 AM 56.3 °F - 28.8 °F 35% 30.03 in 10.0 mi SSW 21.9 mph 28.8 mph N/A   Overcast
12:15 PM 58.3 °F - 29.7 °F 34% 30.02 in 10.0 mi SSW 25.3 mph 29.9 mph N/A   Overcast
12:35 PM 59.7 °F - 30.0 °F 32% 30.01 in 10.0 mi SSW 20.7 mph 29.9 mph N/A   Mostly Cloudy
12:55 PM 59.0 °F - 30.2 °F 34% 30.00 in 10.0 mi SSW 20.7 mph 27.6 mph N/A   Overcast
1:15 PM 57.9 °F - 30.0 °F 35% 29.98 in 10.0 mi SSW 19.6 mph 27.6 mph N/A   Overcast
1:35 PM 58.5 °F - 30.2 °F 34% 29.97 in 10.0 mi SSW 17.3 mph 23.0 mph N/A   Overcast
1:55 PM 60.3 °F - 31.1 °F 33% 29.96 in 10.0 mi South 21.9 mph 28.8 mph N/A   Overcast
2:15 PM 61.2 °F - 32.0 °F 33% 29.94 in 10.0 mi South 21.9 mph 33.4 mph N/A   Mostly Cloudy
2:35 PM 61.7 °F - 32.9 °F 34% 29.93 in 10.0 mi South 23.0 mph 31.1 mph N/A   Mostly Cloudy
2:55 PM 61.2 °F - 33.3 °F 35% 29.91 in 10.0 mi South 17.3 mph - N/A   Mostly Cloudy
3:15 PM 61.9 °F - 33.8 °F 35% 29.89 in 10.0 mi South 15.0 mph 27.6 mph N/A   Scattered Clouds
3:35 PM 63.7 °F - 34.5 °F 34% 29.88 in 10.0 mi South 18.4 mph 28.8 mph N/A   Clear
3:55 PM 62.8 °F - 34.0 °F 34% 29.87 in 10.0 mi South 18.4 mph 24.2 mph N/A   Mostly Cloudy
4:15 PM 64.2 °F - 34.7 °F 33% 29.85 in 10.0 mi South 20.7 mph 29.9 mph N/A   Mostly Cloudy
4:35 PM 66.2 °F - 35.1 °F 32% 29.84 in 10.0 mi South 18.4 mph 26.5 mph N/A   Scattered Clouds
4:55 PM 66.4 °F - 35.4 °F 32% 29.84 in 10.0 mi SSW 25.3 mph 32.2 mph N/A   Scattered Clouds
5:15 PM 64.9 °F - 34.3 °F 32% 29.84 in 10.0 mi South 18.4 mph 31.1 mph N/A   Mostly Cloudy
5:35 PM 64.6 °F - 34.2 °F 32% 29.84 in 10.0 mi South 17.3 mph 29.9 mph N/A   Mostly Cloudy
5:55 PM 60.3 °F - 40.3 °F 48% 29.86 in 10.0 mi SSW 16.1 mph 33.4 mph N/A Rain Light Rain
6:15 PM 56.1 °F - 43.7 °F 63% 29.85 in 10.0 mi South 18.4 mph 21.9 mph N/A   Overcast
6:35 PM 56.5 °F - 43.2 °F 61% 29.83 in 10.0 mi South 20.7 mph 27.6 mph N/A   Drizzle
7:15 PM 54.7 °F - 43.9 °F 67% 29.82 in 10.0 mi SSW 13.8 mph 21.9 mph N/A   Scattered Clouds
7:55 PM 57.4 °F - 41.7 °F 56% 29.82 in 10.0 mi SSW 19.6 mph 27.6 mph N/A   Mostly Cloudy
8:15 PM 57.6 °F - 42.8 °F 58% 29.83 in 10.0 mi SSW 19.6 mph 25.3 mph N/A Rain Light Rain
8:35 PM 55.6 °F - 45.5 °F 69% 29.82 in 10.0 mi South 18.4 mph 27.6 mph N/A   Overcast
8:55 PM 54.7 °F - 47.3 °F 76% 29.85 in 10.0 mi SSW 17.3 mph 26.5 mph 0.01 in Rain Light Rain
9:15 PM 53.6 °F - 48.7 °F 84% 29.88 in 7.0 mi SW 15.0 mph 24.2 mph 0.04 in Rain Light Rain
9:35 PM 53.6 °F - 48.9 °F 84% 29.87 in 7.0 mi SSW 17.3 mph 26.5 mph 0.06 in Rain Rain
9:55 PM 53.2 °F - 48.4 °F 84% 29.88 in 10.0 mi SSW 20.7 mph 29.9 mph 0.07 in   Overcast
10:15 PM 53.2 °F - 48.4 °F 84% 29.88 in 10.0 mi SSW 18.4 mph 25.3 mph N/A Rain Light Rain
10:35 PM 52.9 °F - 48.2 °F 84% 29.87 in 10.0 mi South 15.0 mph 20.7 mph N/A Rain Light Rain
10:55 PM 53.6 °F - 47.8 °F 81% 29.87 in 10.0 mi SSW 16.1 mph 26.5 mph N/A   Overcast
11:15 PM 53.6 °F - 48.0 °F 81% 29.87 in 10.0 mi South 19.6 mph 25.3 mph N/A   Overcast
11:35 PM 53.4 °F - 48.4 °F 83% 29.86 in 10.0 mi South 13.8 mph - N/A   Overcast
11:55 PM 53.8 °F - 48.4 °F 82% 29.86 in 10.0 mi South 17.3 mph 24.2 mph N/A   Overcast